Regional Weather Roundup
Issued by NWS

Home | Current Version | Previous Version | Text Only | Print | Product List | Glossary Off
Versions: 1 2 3 4 5 6 7 8 9 10 11 12 13 14 15 16 17 18 19 20 21 22 23 24 25 26 27 28 29 30 31 32 33 34 35 36 37 38 39 40 41 42 43 44 45 46 47 48 49 50

000
ASUS43 KBIS 181520
RWRND

NORTH DAKOTA REGIONAL WEATHER ROUNDUP
NATIONAL WEATHER SERVICE BISMARCK ND
1000 AM CDT FRI APR 18 2014

NOTE: "FAIR" INDICATES FEW OR NO CLOUDS BELOW 12,000 FEET WITH NO
SIGNIFICANT WEATHER AND/OR OBSTRUCTIONS TO VISIBILITY.


NDZ001>003-009>011-017-181600-
NORTHWEST NORTH DAKOTA

CITY           SKY/WX    TMP DP  RH WIND       PRES   REMARKS
WILLISTON      PTSUNNY   40  25  55 SE20G28   29.86F
MINOT          CLOUDY    36  21  54 E25G32    30.00F
MINOT AFB      CLOUDY    35  22  57 SE25G33   29.99F
$$

NDZ018>021-031>035-040>046-181600-
SOUTHWEST NORTH DAKOTA

CITY           SKY/WX    TMP DP  RH WIND       PRES   REMARKS
BISMARCK       MOSUNNY   44  24  45 SE25G36   29.98F
DICKINSON      MOSUNNY   40  26  57 SE21G30   29.82F
GARRISON         N/A     39  24  55 SE26G32   29.96F
HETTINGER ARPT SUNNY     40  28  62 SE21G26   29.86F
$$

NDZ004>008-012>016-024-026-027-054-181600-
NORTHEAST NORTH DAKOTA

CITY           SKY/WX    TMP DP  RH WIND       PRES   REMARKS
GRAND FORKS    CLOUDY    37  22  54 SE10      30.26S
GRND FRKS AFB  CLOUDY    39  19  44 SE12      30.25S
DEVILS LAKE    PTSUNNY   37  21  52 SE20G26   30.14F
$$

NDZ022-023-025-028>030-036>039-047>053-181600-
SOUTHEAST NORTH DAKOTA

CITY           SKY/WX    TMP DP  RH WIND       PRES   REMARKS
FARGO          CLOUDY    40  25  55 SE14G20   30.25F
JAMESTOWN      CLOUDY    38  22  52 SE22G37   30.12F
$$




USA.gov is the U.S. government's official web portal to all federal, state and local government web resources and services.